Los Alamitos, CA

8:02 PM PST on December 17, 2017 (GMT -0800)
Los Alamitos Army Air Field

Weather History for KSLI - December, 2012

Change the Weather History Date:

Wednesday, December 19, 2012

  Actual Average Record
Temperature  
Mean Temperature 49 °F -  
Max Temperature 60 °F 66 °F 86 °F (2004)
Min Temperature 38 °F 47 °F 35 °F (2006)
Degree Days  
Heating Degree Days 16    
Moisture  
Dew Point 26 °F    
Average Humidity 42    
Maximum Humidity 67    
Minimum Humidity 24    
Precipitation  
Precipitation 0.00 in - - ()
Sea Level Pressure  
Sea Level Pressure 30.19 in    
Wind  
Wind Speed 8 mph (North)    
Max Wind Speed 18 mph    
Max Gust Speed 24 mph    
Visibility 10 miles    
Events      
Averages and records for this station are not official NWS values.
T = Trace of Precipitation, MM = Missing Value Source: NWS Daily Summary

Daily Weather History Graph

Daily Weather History Graph

Search for Another Location

Airport or City:

Trip Planner

Search our weather history database for the weather conditions in past years. The results will help you decide how hot, cold, wet, or windy it might be!

Date:

Astronomy

Dec. 19, 2012 Rise Set
Actual Time 6:52 AM PST 4:46 PM PST
Civil Twilight 6:24 AM PST 5:14 PM PST
Nautical Twilight 5:53 AM PST 5:45 PM PST
Astronomical Twilight 5:23 AM PST 6:16 PM PST
Moon 11:22 AM PST (12/19) 11:59 PM PST (12/19)
Length of Visible Light 10h 49m
Length of Day
9h 54m
Waxing Crescent, 46% of the Moon is Illuminated
Dec 19
Waxing Crescent
Dec 19
First Quarter
Dec 28
Full
Jan 4
Last Quarter
Jan 11
New

Hourly Weather History & Observations

Time (PST) Temp. Windchill Dew Point Humidity Pressure Visibility Wind Dir Wind Speed Gust Speed Precip Events Conditions
12:58 AM 47.5 °F - 22.5 °F 37% 30.06 in 10.0 mi West 10.4 mph - N/A   Clear
1:58 AM 47.1 °F - 22.6 °F 38% 30.06 in 10.0 mi WNW 18.4 mph 24.2 mph N/A   Clear
2:58 AM 46.4 °F 40.4 °F 23.2 °F 40% 30.08 in 10.0 mi West 13.8 mph - N/A   Clear
3:58 AM 46.8 °F - 22.5 °F 38% 30.08 in 10.0 mi NW 13.8 mph 20.7 mph N/A   Clear
4:58 AM 44.4 °F - 24.4 °F 45% 30.11 in 10.0 mi North 2.3 mph - N/A   Clear
5:58 AM 38.5 °F - 26.8 °F 63% 30.14 in 10.0 mi Calm Calm - N/A   Clear
6:58 AM 38.5 °F 35.0 °F 26.8 °F 63% 30.16 in 10.0 mi ENE 4.6 mph - N/A   Clear
7:58 AM 41.2 °F 39.2 °F 29.8 °F 64% 30.19 in 10.0 mi NE 3.5 mph - N/A   Clear
8:58 AM 46.2 °F - 28.0 °F 49% 30.22 in 10.0 mi Calm Calm - N/A   Clear
9:58 AM 52.0 °F - 26.2 °F 37% 30.24 in 10.0 mi West 3.5 mph - N/A   Clear
10:58 AM 54.1 °F - 25.9 °F 34% 30.22 in 10.0 mi ENE 4.6 mph - N/A   Clear
11:58 AM 56.7 °F - 24.4 °F 29% 30.21 in 10.0 mi WNW 3.5 mph - N/A   Clear
12:58 PM 58.6 °F - 23.9 °F 26% 30.20 in 10.0 mi Variable 5.8 mph - N/A   Clear
1:58 PM 60.1 °F - 22.8 °F 24% 30.19 in 10.0 mi NNE 8.1 mph - N/A   Clear
2:58 PM 57.6 °F - 32.0 °F 38% 30.20 in 10.0 mi SW 6.9 mph - N/A   Clear
3:58 PM 59.0 °F - 36.1 °F 42% 30.20 in 10.0 mi Variable 1.2 mph - N/A   Clear
4:58 PM 53.1 °F - 35.8 °F 52% 30.21 in 10.0 mi SSW 3.5 mph - N/A   Clear
5:58 PM 49.5 °F - 36.5 °F 61% 30.22 in 10.0 mi Calm Calm - N/A   Clear
6:58 PM 47.1 °F - 36.5 °F 67% 30.24 in 10.0 mi ENE 2.3 mph - N/A   Clear
7:58 PM 50.5 °F - 19.6 °F 30% 30.24 in 10.0 mi NNE 9.2 mph - N/A   Clear
8:58 PM 47.5 °F - 18.1 °F 31% 30.26 in 10.0 mi NE 6.9 mph - N/A   Clear
9:58 PM 44.4 °F - 22.1 °F 41% 30.27 in 10.0 mi North 2.3 mph - N/A   Clear
10:58 PM 46.2 °F 42.2 °F 19.8 °F 35% 30.26 in 10.0 mi NNE 8.1 mph - N/A   Clear
11:58 PM 49.1 °F - 15.1 °F 26% 30.25 in 10.0 mi North 5.8 mph - N/A   Clear